Regional Weather Roundup
Issued by NWS

Home | Current Version | Previous Version | Text Only | Print | Product List | Glossary On
Versions: 1 2 3 4 5 6 7 8 9 10 11 12 13 14 15 16 17 18 19 20 21 22 23 24 25 26 27 28 29 30 31 32 33 34 35 36 37 38 39 40 41 42 43 44 45 46 47 48 49 50
000
ASUS43 KMPX 192010
RWRMN
WEATHER ROUNDUP FOR MINNESOTA
NATIONAL WEATHER SERVICE TWIN CITIES/CHANHASSEN MN
300 PM CDT SAT AUG 19 2017


NOTE: "FAIR" INDICATES FEW OR NO CLOUDS BELOW 12,000 FEET WITH NO
SIGNIFICANT WEATHER AND/OR OBSTRUCTIONS TO VISIBILITY. N/A MEANS
CURRENT SKY AND/OR WEATHER CONDITIONS ARE NOT AVAILABLE.

MNZ060>063-068>070-192100-
   Twin Cities Metro

CITY           SKY/WX    TMP DP  RH WIND       PRES   REMARKS
TWIN CITIES    MOSUNNY   78  58  49 SW6       29.92F
ST PAUL        SUNNY     78  62  57 SW7       29.92F
CRYSTAL        SUNNY     78  57  48 SW7       29.90F
BLAINE         MOSUNNY   81  57  44 SW7       29.91F
LAKEVILLE      MOSUNNY   77  63  61 S7        29.93F
EDEN PRAIRIE   SUNNY     78  62  57 S8        29.91F
SOUTH ST PAUL  SUNNY     78  60  54 SW8       29.92F
LAKE ELMO      FAIR      79  61  53 W8        29.93F
$$
MNZ001>005-007-008-013>017-022>024-027-028-192100-
   Northwest Minnesota

CITY           SKY/WX    TMP DP  RH WIND       PRES   REMARKS
BEMIDJI        SUNNY     81  54  39 SW3       29.85S
HALLOCK        MOSUNNY   86  57  37 S16G23    29.73F
ROSEAU         SUNNY     86  61  42 S13       29.77F
WARROAD        SUNNY     82  59  44 S9        29.78F
THIEF RVR FALL SUNNY     83  56  39 S15G21    29.80F
CROOKSTON      SUNNY     84  55  37 SW16      29.78F
FOSSTON        SUNNY     81  55  41 S14       29.83F
DETROIT LAKES  SUNNY     79  57  47 S12       29.87F
MOORHEAD       SUNNY     81  61  50 S14G22    29.82F
PARK RAPIDS    SUNNY     80  59  48 S9        29.86F
MAHNOMEN       FAIR      79  60  51 S10       29.83F
$$
MNZ006-009>011-018-025>026-192100-
   North Central Minnesota

CITY           SKY/WX    TMP DP  RH WIND       PRES   REMARKS
BAUDETTE       MOSUNNY   84  55  36 SW8       29.79F
FLAG ISLAND    MOSUNNY   81  63  54 S6        29.76F HAZE
INTL FALLS     MOSUNNY   81  56  42 W8        29.81F
WASKISH        PTSUNNY   81  57  44 W10       29.82F
BIG FORK       SUNNY     82  57  42 SW8       29.85F
LONGVILLE      SUNNY     79  61  53 W5        29.87F
GRAND RAPIDS   MOSUNNY   77  59  53 W7        29.89F
CRANE LAKE     MOSUNNY   75  57  53 CALM      29.85F
ORR            MOSUNNY   79  54  41 SW5       29.83S
COOK           MOSUNNY   79  55  44 W9        29.86F
WALKER         FAIR      78  58  49 S9        29.86F
$$
MNZ012-019>021-037-192100-
   Northeast Minnesota

CITY           SKY/WX    TMP DP  RH WIND       PRES   REMARKS
DULUTH         MOSUNNY   79  58  48 W14G20    29.88F
ELY            MOSUNNY   75  54  46 W5        29.86F
HIBBING        SUNNY     78  55  44 W8        29.87F
EVELETH        MOSUNNY   78  43  29 W6        29.88F
DULUTH HARBOR  SUNNY     81  61  50 W10       29.86F
TWO HARBORS    MOSUNNY   84  63  48 W8        29.85S
SILVER BAY     SUNNY     82  54  36 W6        29.84F
GRAND MARAIS     N/A     68  63  84 W10       29.82S
G MARAIS ARPRT MOSUNNY   77  50  38 NW3       29.88S
$$
MNZ029>031-032-039>041-046>048-054>057-064-192100-
   West Central Minnesota

CITY           SKY/WX    TMP DP  RH WIND       PRES   REMARKS
FERGUS FALLS   SUNNY     79  61  53 S13       29.85F
WHEATON        SUNNY     77  61  57 SE12      29.87F
MORRIS         SUNNY     79  63  57 S13       29.87F
ALEXANDRIA     SUNNY     77  58  51 S10       29.91F
ELBOW LAKE     FAIR      77  64  64 S15       29.88F HAZE
WADENA         SUNNY     79  57  47 S8        29.87F
GLENWOOD       SUNNY     79  61  53 S10       29.91F
APPLETON       SUNNY     79  61  53 S8        29.88F
BENSON         SUNNY     79  61  53 SW10      29.90F
ORTONVILLE     SUNNY     79  61  53 MISG      29.87F
MADISON        SUNNY     81  63  54 S12       29.88F
WILLMAR        FAIR      79  63  57 SE7       29.91F
$$
MNZ033>034-036-042>043-049>051-058-059-192100-
   Central Minnesota

CITY           SKY/WX    TMP DP  RH WIND       PRES   REMARKS
ST CLOUD       SUNNY     78  61  55 S7        29.90F
SAUK CENTRE    FAIR      77  60  55 S8        29.90F HAZE
PAYNESVILLE    SUNNY     77  61  57 S9        29.91F
AITKIN         MOSUNNY   79  61  53 SW8       29.88F
PINE RIVER     MOSUNNY   75  57  53 SW8       29.91F
BRAINERD       MOSUNNY   77  58  51 SW8G18    29.89F
STAPLES        SUNNY     79  55  44 SW6       29.88F
LONG PRAIRIE   FAIR      75  61  60 SE9       29.90F
LITTLE FALLS   SUNNY     77  55  47 S8        29.90F
LITCHFIELD     SUNNY     79  63  57 CALM      29.92F
BUFFALO        SUNNY     77  58  51 S3        29.92F
MAPLE LAKE     SUNNY     78  62  58 S5        29.92F
HUTCHINSON     MOSUNNY   77  64  64 SE6       29.93F
$$
MNZ037-044-045-052-053-192100-
   East Central Minnesota

CITY           SKY/WX    TMP DP  RH WIND       PRES   REMARKS
PRINCETON      SUNNY     82  61  47 SW6       29.91F
MORA           SUNNY     75  59  57 SW7       29.92F
CAMBRIDGE      SUNNY     81  63  54 S8        29.91F
RUSH CITY      SUNNY     78  60  54 S6        29.91F HAZE
MOOSE LAKE     SUNNY     79  59  50 SW8       29.88S
HINCKLEY       FAIR      79  63  57 SW8       29.90F
CLOQUET        MOSUNNY   79  55  44 SW9G16    29.89F
MCGREGOR       PTSUNNY   79  61  53 SW6       29.89F
$$
MNZ071>073-080-081-089-090-097-098-192100-
   Southwest Minnesota

CITY           SKY/WX    TMP DP  RH WIND       PRES   REMARKS
MONTEVIDEO     SUNNY     81  64  57 SW13      29.90F
GRANITE FALLS  SUNNY     79  64  60 S8        29.91F
CANBY          SUNNY     80  60  50 CALM      29.90F
MARSHALL       SUNNY     79  61  53 S12       29.91F
REDWOOD FALLS  SUNNY     78  62  57 SE9       29.91F
OLIVIA         SUNNY     77  61  57 S7        29.91F
PIPESTONE      MOSUNNY   79  61  53 S9        29.93F
WINDOM         SUNNY     79  61  53 S5        29.94F
WORTHINGTON    SUNNY     77  61  57 SE9       29.95F
JACKSON        SUNNY     77  63  61 CALM      29.95F
TRACY          SUNNY     78  62  58 S9        29.92F
SLAYTON        SUNNY     77  56  48 S7        29.95S
$$
MNZ065>067-074>077-082>085-091>093-192100-
   South Central Minnesota

CITY           SKY/WX    TMP DP  RH WIND       PRES   REMARKS
MANKATO        SUNNY     76  64  66 S7        29.94S
NEW ULM        SUNNY     77  63  61 S6        29.92F
ST JAMES       SUNNY     77  63  61 S6        29.94F
FAIRMONT       MOSUNNY   76  65  68 VRB7      29.94F
GLENCOE        SUNNY     77  66  69 SE7       29.92S
FARIBAULT      SUNNY     77  63  61 SW3       29.94F
OWATONNA       MOSUNNY   79  64  61 S6        29.94F
WASECA         SUNNY     77  63  61 S6        29.95F
ALBERT LEA     SUNNY     81  63  54 SE3       29.94F
$$
MNZ078>079-086>088-094>096-192100-
   Southeast Minnesota

CITY           SKY/WX    TMP DP  RH WIND       PRES   REMARKS
ROCHESTER      MOSUNNY   76  64  66 SW8       29.96F
RED WING       SUNNY     81  55  41 W7        29.92F
STANTON        MOSUNNY   78  62  57 SW5       29.93S
DODGE CENTER   MOSUNNY   77  61  57 SW7       29.96F
WINONA         SUNNY     79  59  50 W7        29.94F
AUSTIN         MOSUNNY   75  63  64 S3        29.95F
PRESTON        MOSUNNY   77  59  53 SW9       29.97F
$$
ABBREVIATIONS USED IN REMARKS
   TC - TEMPERATURES IN CELSIUS
  WCI - WIND CHILL INDEX
   HX - HEAT INDEX
  VSB - VISIBILITY
$$




USA.gov is the U.S. government's official web portal to all federal, state and local government web resources and services.